Location: Byhalia Creek
(34.8270°N, 89.8040°W)
Time: 20:26:17
(UTC+00:00)

Cosmos 1656 Rocket - Pass Details

Date: 22 April 2026
Orbit: 794 x 844 km, 71.1° (Epoch: 21 May)

Event Time Altitude Azimuth Distance (km) Brightness Sun altitude
Rises 02:35:06 0° 340° (NNW) 3,325 7.7 -22.8°
Reaches altitude 10° 02:37:31 10° 341° (NNW) 2,397 6.8 -23.2°
Maximum altitude 02:43:00 83° 68° (ENE) 828 3.5 -24.2°
Enters shadow 02:43:56 63° 145° (SE) 912 3.5 -24.3°
